Wind_Gust
3 2 2 4 5 4 3 7 8 10 6 12 8 7 17 4 9 10 14 12 12 5 9 13 4 5 7 10 11 10 11 9 7 22 14 14 8 18 16 18 17 18 20 19 17 18 18 18 20 23 23 21 21 20 21 21 20 21 20 21 21 21 21 22 23 23 22 22 22 23 22 23 24 25 25 24 23 23 23 24 24 25 25 25 25 24 24 23 24 24 24 24 23 23 23 22 22
1 1 3 1 3 2 5 6 8 3 5 9 19 4 12 5 3 12 15 9 5 5 6 13 19 20 23 21 16 7 10 10 6 6 8 7 14 15 16 21 21 23 19 19 18 17 16 19 21 21 23 22 21 20 21 21 21 21 21 20 20 20 21 22 22 21 21 20 21 22 22 22 22 22 21 22 22 21 21 23 24 24 24 24 24 24 23 22 23 23 23 23 22 22 22 22 21
2 4 5 6 6 7 4 5 7 3 5 17 13 16 4 6 10 14 14 8 7 8 5 9 6 7 9 5 6 4 3 6 10 7 13 11 22 9 15 20 19 20 20 18 18 18 16 17 21 22 24 22 21 22 21 21 21 20 20 20 19 20 20 21 21 21 21 21 21 21 22 22 21 20 17 19 21 19 18 20 22 23 23 23 23 22 21 21 22 22 22 21 21 20 21 21 20
4 4 4 5 6 8 7 6 7 12 9 11 14 12 14 9 15 10 8 9 10 9 12 6 9 8 6 13 11 11 10 7 4 10 25 21 16 18 18 20 18 20 18 18 18 17 16 19 22 22 23 23 23 22 21 21 21 20 20 20 20 20 20 20 20 20 20 21 22 21 21 21 20 17 17 18 18 18 17 18 19 22 22 22 22 22 21 19 20 21 21 20 20 20 20 20 19
3 2 2 6 11 5 6 8 7 8 17 13 11 8 6 8 12 11 9 11 8 16 8 9 11 6 7 10 4 6 7 6 7 5 17 8 14 18 18 18 20 21 21 17 17 17 17 22 21 21 22 23 22 21 20 21 21 20 20 20 20 20 20 20 19 20 20 20 21 20 20 20 18 18 19 20 19 18 16 16 16 18 19 21 20 19 18 16 17 19 19 19 19 20 19 18 18
6 4 4 5 6 7 8 4 6 12 13 6 6 12 6 8 11 10 13 11 10 2 6 5 10 9 11 7 6 9 9 10 7 3 12 10 20 19 18 18 21 21 18 17 16 15 18 22 21 22 22 22 22 21 21 21 21 20 20 20 20 20 20 20 20 20 20 20 20 21 20 20 19 20 20 20 20 20 20 18 19 21 23 23 22 20 18 15 14 15 16 17 17 17 18 17 17
4 7 7 5 6 8 9 5 10 11 19 6 14 19 21 18 16 14 21 10 5 7 5 8 18 16 19 9 9 8 9 8 11 8 6 17 18 18 18 18 19 20 17 16 14 14 18 21 21 22 22 23 22 21 21 20 20 20 19 19 20 20 20 20 19 19 19 19 19 20 20 19 19 20 20 20 21 20 20 20 21 21 22 21 20 20 17 14 14 14 15 16 16 16 17 17 16
3 7 4 7 7 3 4 4 13 9 14 11 8 19 21 19 17 11 19 3 11 8 3 13 5 16 4 5 11 5 8 5 10 15 17 19 16 16 15 18 20 21 18 14 13 13 18 20 19 20 21 21 22 20 21 21 20 19 20 20 19 20 18 18 18 18 18 18 19 20 19 19 19 19 20 20 21 20 20 20 21 21 20 20 19 20 17 13 13 13 14 15 15 16 16 16 15
7 9 3 11 4 6 4 10 14 7 15 11 19 17 20 21 22 16 20 8 4 4 12 8 4 15 10 12 8 3 6 8 15 18 17 19 18 15 16 16 22 20 18 16 14 14 14 17 17 18 18 19 19 20 19 20 19 19 20 20 19 17 16 16 17 17 16 16 17 18 19 19 19 19 19 19 20 20 19 20 21 20 20 20 20 20 17 12 13 13 13 13 14 14 15 15 15
5 4 4 9 7 4 4 13 4 11 9 7 12 19 17 20 20 13 13 16 9 11 5 4 4 16 16 15 11 5 7 10 17 15 14 15 16 15 14 13 17 22 18 16 15 14 13 18 17 16 17 18 18 18 17 17 18 18 19 18 17 16 16 16 16 17 16 17 17 16 17 17 17 18 18 18 19 19 19 20 20 20 19 19 18 18 17 13 13 13 12 13 13 13 13 13 14
7 7 5 7 3 4 10 10 9 14 14 12 16 22 19 22 22 26 7 15 5 12 9 18 21 21 14 11 9 5 7 9 16 17 12 13 14 16 15 13 15 17 18 16 14 14 14 13 18 16 16 17 16 16 17 17 17 18 18 17 17 17 16 16 17 17 17 17 17 18 17 17 17 17 18 18 18 18 18 19 20 19 18 17 17 17 16 13 11 12 11 11 11 11 12 12 13
6 5 4 6 7 11 9 6 10 18 15 11 18 20 11 17 17 13 6 10 7 6 10 6 20 21 16 13 10 6 8 7 7 13 11 10 13 13 15 15 15 15 16 16 15 14 13 13 13 18 18 17 16 16 17 17 18 18 18 17 17 16 16 16 16 16 16 17 17 16 16 16 17 17 18 18 17 18 18 18 18 19 18 17 17 16 15 13 10 10 9 9 10 10 11 12 13
8 4 8 6 8 3 6 6 13 8 14 16 10 21 8 11 9 10 8 6 10 9 6 3 27 6 12 11 10 8 10 4 7 10 10 11 12 12 12 15 16 19 16 15 16 16 14 12 13 14 17 21 17 17 18 18 19 18 17 17 16 16 16 15 15 15 16 16 16 15 16 16 16 16 16 17 18 18 19 19 19 18 19 18 18 16 15 13 9 8 8 9 10 10 10 12 14
9 10 8 7 2 4 3 9 7 8 15 17 9 12 16 16 8 10 15 8 4 6 4 17 15 12 13 14 13 12 11 5 7 8 11 12 13 13 13 14 16 17 16 15 17 16 15 13 12 12 14 14 15 17 19 19 18 17 17 16 16 15 15 15 15 15 16 16 15 15 15 15 15 16 17 18 19 17 17 17 17 18 17 18 18 16 15 13 10 7 7 8 9 9 10 12 13
5 4 4 5 7 2 7 10 4 2 18 15 10 17 29 11 8 9 14 18 5 4 14 6 14 10 18 20 15 18 18 11 10 13 15 14 13 13 15 14 15 15 15 16 15 16 16 15 13 12 11 12 14 12 13 19 19 18 16 16 15 15 15 15 15 15 15 16 16 14 14 15 15 16 17 18 18 18 17 16 17 16 15 15 16 16 15 13 10 7 6 7 8 8 9 11 12
7 4 4 4 8 5 14 7 3 3 23 7 8 9 16 16 13 5 7 9 16 6 4 12 7 8 11 15 18 23 19 14 13 16 18 17 15 13 14 14 14 13 15 15 15 14 15 15 13 13 13 13 12 11 13 15 17 17 17 17 16 16 16 15 16 16 16 17 16 15 14 15 14 14 17 16 17 17 15 11 15 15 14 14 15 15 15 13 11 8 5 6 6 7 8 10 12
3 4 5 6 12 6 11 10 7 11 13 13 13 11 19 20 13 10 9 13 21 3 7 7 7 5 19 6 18 23 18 16 17 18 17 15 15 13 12 11 12 11 11 13 14 15 15 14 14 14 13 13 12 12 11 12 15 16 14 16 16 16 17 17 16 18 17 16 15 16 12 9 7 8 10 9 14 11 10 13 15 16 14 14 15 15 14 13 11 8 6 6 6 7 7 11 13
5 8 8 8 14 9 11 11 8 5 14 17 16 10 13 13 7 4 10 18 15 13 12 7 18 15 13 17 22 20 19 19 17 20 17 14 14 17 17 13 12 14 13 13 14 15 15 15 13 14 15 14 12 12 10 10 13 13 10 11 12 15 15 15 13 11 12 8 14 12 8 8 7 8 8 11 8 10 12 15 15 14 14 13 14 14 13 12 10 8 6 3 5 6 8 7 9
10 7 9 17 10 16 7 7 8 7 14 16 17 12 9 12 5 4 13 3 7 16 12 11 17 15 15 15 20 22 21 18 16 17 17 16 16 19 20 17 13 14 13 12 15 14 13 13 15 14 13 13 12 10 10 9 9 7 8 9 11 12 12 12 8 10 7 9 8 7 7 7 7 6 6 8 8 11 11 14 14 13 14 14 13 14 13 11 9 7 5 3 5 6 5 6 9
11 9 11 19 9 6 8 7 10 9 14 19 15 12 8 15 5 3 7 7 3 19 16 9 14 21 18 18 18 19 18 17 16 17 15 14 13 16 17 16 16 16 12 12 14 13 12 13 14 13 14 13 14 12 10 9 9 8 7 6 8 9 9 9 8 9 8 8 9 8 7 6 6 6 11 14 13 8 10 12 12 12 12 13 13 10 11 10 9 6 4 5 5 4 2 5 9
8 11 16 15 5 10 12 5 9 15 10 12 13 12 12 10 2 11 11 10 3 8 18 25 23 27 23 23 21 20 18 16 16 15 16 17 20 17 16 18 19 14 9 9 11 13 11 11 12 12 12 12 11 10 10 9 8 9 7 8 8 9 9 9 8 8 8 8 8 8 7 6 6 4 4 6 7 7 6 5 6 5 4 5 9 7 7 6 5 4 3 4 2 2 1 6 9
5 13 11 10 5 10 15 12 13 13 13 9 16 9 14 3 8 11 15 11 13 19 20 12 28 28 31 25 21 19 18 17 17 17 17 21 22 18 21 25 23 22 16 12 11 14 12 12 12 12 13 11 10 10 10 9 8 10 10 9 9 8 9 8 7 8 9 8 8 8 7 7 6 6 6 5 5 6 7 6 4 4 3 5 6 7 6 4 4 3 1 1 1 1 1 5 6
11 10 8 10 9 13 8 11 13 6 14 12 11 7 6 2 7 11 13 13 14 10 7 13 25 30 28 25 22 18 16 15 16 18 23 21 21 26 22 19 18 17 16 14 15 12 14 12 14 13 13 12 11 13 12 10 9 9 9 8 11 10 9 8 7 7 8 9 9 8 9 7 7 6 7 5 5 6 6 3 4 3 5 6 5 7 6 5 5 4 4 3 2 3 5 7 7
8 18 7 12 5 10 14 14 14 14 9 19 19 6 13 14 9 10 8 11 3 9 11 12 13 19 23 24 19 19 17 17 15 17 21 24 22 15 19 19 18 15 14 15 15 16 17 14 14 15 16 16 13 13 12 13 11 8 7 9 8 12 11 9 6 6 6 8 8 9 7 9 10 8 6 7 5 6 4 4 3 3 4 6 5 6 7 5 6 5 4 4 5 5 8 8 9
9 15 9 11 9 11 15 14 14 15 16 17 12 14 18 9 7 6 9 11 12 13 14 17 17 19 18 19 21 19 19 18 18 17 14 11 11 12 12 16 17 19 19 18 18 20 18 18 15 15 15 13 14 13 15 12 10 9 8 10 10 11 9 9 8 6 8 6 6 7 8 9 9 9 8 6 6 5 5 5 3 4 5 5 6 6 6 6 6 6 6 5 5 7 8 8 9
11 17 13 10 11 9 9 8 9 13 14 6 8 14 16 15 7 4 5 10 14 17 15 17 17 19 19 19 18 19 18 20 17 19 17 10 11 15 17 20 18 19 20 22 21 20 20 19 20 18 17 18 14 14 12 12 10 10 9 9 10 11 10 10 7 8 7 7 7 6 6 9 10 10 9 6 8 6 5 4 5 5 6 5 6 7 4 6 7 6 5 4 4 4 7 7 9
5 6 7 11 11 10 8 10 11 9 9 4 10 11 13 6 6 9 2 3 17 17 17 15 18 21 18 17 18 17 20 21 23 16 13 12 13 17 17 17 20 19 17 20 21 20 23 22 21 20 17 16 15 14 13 14 12 9 9 9 9 10 9 9 8 8 7 6 7 6 5 5 8 8 9 8 6 6 4 5 5 5 5 4 5 6 4 6 4 6 6 6 4 6 6 5 10
5 9 8 9 11 10 11 9 14 6 13 10 13 15 15 7 5 12 10 10 19 22 18 19 18 18 17 18 18 16 14 14 16 18 20 19 19 19 18 22 20 20 18 17 18 18 22 22 23 20 19 18 16 13 13 12 13 10 8 7 8 8 8 8 7 5 8 6 5 5 5 5 5 6 7 7 7 5 4 5 5 5 4 4 5 5 5 5 6 5 4 4 3 4 7 7 7
6 2 12 11 11 19 4 10 10 7 13 6 12 8 10 7 6 9 15 18 15 22 22 21 19 18 15 17 17 15 16 12 14 17 19 18 15 16 20 16 20 16 11 11 15 17 20 20 23 20 18 16 16 15 14 13 11 10 9 8 7 8 6 7 8 6 5 5 5 5 6 6 5 8 5 6 6 5 4 4 3 3 4 5 4 5 5 5 5 6 5 3 6 6 7 9 9
3 3 5 12 13 18 11 5 7 5 9 6 11 11 11 14 14 3 11 18 16 16 22 21 17 17 16 14 14 13 11 11 10 13 13 11 12 13 15 12 9 12 13 12 14 14 13 13 16 19 19 17 16 12 11 12 10 9 7 7 5 6 4 6 7 5 6 7 7 6 6 6 5 6 8 6 5 5 5 4 5 5 5 5 5 6 7 5 6 6 6 6 7 7 7 6 10
7 9 4 11 7 18 9 5 3 3 7 4 9 13 13 14 17 7 11 21 22 19 19 19 18 18 16 13 14 15 12 11 12 10 8 8 9 9 10 10 9 11 15 14 16 15 14 13 14 14 17 15 12 14 13 11 6 6 8 7 6 6 6 6 6 4 4 3 5 6 5 6 5 5 5 7 5 6 6 5 5 6 5 4 5 3 7 7 7 7 7 9 7 8 7 6 8
6 9 15 9 10 16 13 9 5 10 9 5 8 10 14 13 16 5 18 21 22 22 18 18 20 21 17 15 15 14 12 9 7 7 8 9 10 12 12 13 12 15 16 18 17 18 18 16 16 16 17 16 14 12 7 7 7 6 7 8 7 5 5 6 6 6 5 3 3 5 4 5 5 6 6 6 7 6 7 6 5 7 6 4 4 4 5 8 7 7 5 7 11 6 8 8 7
8 9 10 13 4 10 17 5 2 8 12 3 12 16 6 11 17 11 15 21 22 21 19 19 21 20 19 16 15 13 12 10 8 9 11 12 12 10 10 13 16 17 16 18 18 16 18 18 20 18 20 19 17 12 8 6 8 7 7 8 7 6 7 6 5 3 4 5 3 5 4 4 5 5 6 6 8 7 6 6 5 6 5 6 5 4 6 6 9 8 6 4 5 9 8 10 9
16 5 10 7 5 8 14 14 9 2 5 8 2 11 10 12 11 6 17 21 19 19 19 20 24 22 19 16 15 15 15 12 15 15 14 13 13 8 8 13 14 15 16 16 15 17 18 17 18 19 17 16 14 14 11 9 8 8 8 8 8 7 5 4 4 4 4 3 4 6 6 6 6 6 6 5 5 5 5 7 6 5 5 6 5 6 6 4 5 7 9 5 6 10 9 11 10
6 4 7 13 5 6 13 11 9 14 3 4 4 4 11 16 14 6 16 19 25 23 23 22 22 21 19 17 17 15 15 13 11 7 10 11 7 7 10 13 12 13 13 14 13 14 15 14 15 17 17 15 12 12 11 9 8 7 6 6 6 4 3 3 3 4 4 4 4 5 6 6 7 6 6 6 8 7 6 7 8 6 5 6 7 7 7 6 5 5 9 8 8 8 9 8 11
3 4 5 4 7 13 13 12 4 3 10 13 6 13 16 17 15 8 11 17 27 22 16 17 16 19 18 17 14 14 11 10 6 10 12 10 9 10 9 11 11 10 11 13 14 14 14 13 13 15 15 15 12 12 12 11 9 10 11 8 6 6 5 5 5 6 5 6 6 6 7 6 6 7 6 6 8 8 8 7 7 5 6 7 8 9 7 7 8 9 8 10 10 10 8 8 10
6 5 5 8 8 17 15 9 4 5 12 9 14 11 13 19 18 8 13 12 13 19 20 20 19 20 19 18 15 12 12 10 9 12 13 10 11 10 9 9 11 11 11 12 14 14 14 16 16 19 15 14 13 14 13 13 13 12 8 10 8 7 6 4 5 5 6 4 5 6 7 8 7 6 6 6 6 7 6 5 6 5 5 6 8 8 7 7 7 8 9 7 10 12 6 5 6
4 7 7 16 7 21 18 11 7 14 10 11 8 7 16 22 17 7 13 18 22 24 24 22 23 21 23 20 18 16 11 7 12 13 11 11 13 10 9 10 11 15 12 12 14 15 13 13 16 17 14 13 13 13 13 12 10 13 13 11 6 7 6 7 5 3 5 7 5 7 8 8 8 7 6 5 5 6 7 7 6 7 7 6 5 6 6 7 8 8 9 10 4 9 9 5 5
4 8 9 9 22 11 17 11 8 6 5 14 9 10 21 22 18 7 21 27 30 31 33 32 30 24 23 20 18 16 15 16 16 16 14 15 14 13 11 10 10 11 14 13 12 14 14 13 13 13 14 14 13 13 13 12 7 7 9 9 8 7 3 3 4 3 5 8 6 6 6 7 8 8 7 7 8 6 7 8 7 7 7 7 8 8 8 9 8 9 7 12 10 6 8 3 2
8 5 6 19 9 8 19 4 6 5 9 12 9 11 27 16 6 13 18 27 26 26 32 30 32 32 28 31 30 25 21 23 24 23 20 16 15 14 11 13 13 12 13 12 14 15 14 12 11 13 14 11 12 9 8 7 8 6 5 7 5 5 6 5 5 5 5 6 4 3 4 6 6 7 7 7 7 7 8 9 7 7 7 5 8 9 7 8 8 7 7 7 11 11 8 3 5
5 8 11 16 8 11 15 15 10 10 8 6 7 10 22 9 6 6 7 4 16 14 8 11 11 15 13 9 9 19 28 27 27 22 18 16 18 17 16 15 14 15 13 14 15 16 14 13 12 12 12 11 9 9 9 9 10 8 8 8 7 9 9 8 8 5 3 4 5 3 5 4 6 7 6 7 7 8 8 9 9 8 7 7 7 7 7 8 7 6 7 9 8 13 6 7 4
9 10 17 14 12 14 13 10 8 14 19 6 5 16 16 10 10 11 6 11 16 18 23 23 22 21 19 18 18 14 15 20 29 32 24 20 19 15 13 15 17 15 15 13 13 13 11 12 11 9 8 8 10 8 9 11 11 13 13 13 12 9 10 10 10 11 7 8 10 4 2 3 4 4 5 5 6 7 7 8 7 8 8 9 9 9 7 6 6 6 6 8 6 2 11 8 6
8 19 15 19 18 15 17 16 5 9 15 9 5 5 25 16 8 6 11 16 17 14 21 23 22 22 21 19 20 20 23 20 14 14 16 19 18 17 16 16 17 17 13 12 11 10 10 10 9 9 10 9 8 7 7 9 9 9 11 11 11 14 14 8 5 7 10 5 5 5 3 1 2 5 3 4 5 6 6 5 5 5 6 6 8 9 9 9 8 7 6 6 6 8 7 8 9
17 13 12 12 12 14 16 13 12 17 7 9 3 8 13 20 11 5 4 19 17 18 17 19 21 22 21 20 20 19 21 19 19 19 18 17 17 19 20 17 15 17 14 12 12 11 11 11 9 9 8 9 6 7 7 9 13 11 11 9 10 11 11 11 8 6 3 6 7 4 2 2 1 1 2 2 4 5 6 6 5 5 6 5 7 7 8 7 7 4 5 5 7 8 9 12 8
22 8 12 11 15 15 12 12 12 8 2 19 8 2 6 10 14 6 8 16 16 22 24 25 20 20 18 18 19 19 19 20 19 21 21 19 18 17 16 16 10 12 14 14 12 11 11 10 10 8 9 8 6 6 7 6 10 12 12 12 10 6 7 7 5 4 7 5 7 3 3 2 1 1 1 2 2 3 5 6 5 4 6 6 7 8 5 6 7 9 7 7 7 6 6 7 11
22 18 6 8 6 8 10 10 7 5 6 15 14 5 9 15 12 8 4 8 20 23 23 22 22 22 20 19 16 17 15 14 14 13 12 12 13 14 13 12 10 8 10 11 10 11 12 11 11 11 9 9 7 6 7 7 8 12 13 11 11 7 6 6 6 7 6 5 7 4 3 3 2 3 2 1 1 1 2 4 6 6 5 6 6 8 8 7 6 7 8 7 5 6 3 8 10
4 7 7 9 4 3 3 5 8 4 9 17 11 5 7 12 9 9 13 10 11 15 14 13 13 14 12 12 17 19 18 17 17 15 14 10 10 13 10 13 11 8 8 11 12 12 11 12 12 12 11 10 8 8 9 10 9 10 13 13 13 12 9 11 10 8 6 5 8 4 4 3 2 4 5 3 2 3 4 4 6 6 5 6 6 7 9 11 9 9 7 5 6 8 7 6 4
9 13 11 6 9 9 3 7 8 9 17 16 9 9 11 15 7 6 7 5 9 23 25 24 22 26 23 21 21 19 18 18 16 17 16 13 12 10 10 11 13 12 11 12 11 12 12 12 13 13 9 9 8 9 9 10 10 8 11 14 14 13 12 13 14 14 12 10 9 8 3 6 5 7 6 5 3 2 4 5 4 5 7 6 6 6 7 8 9 8 8 8 7 5 5 8 7
11 7 8 11 11 6 13 7 12 13 23 12 2 10 6 15 10 6 5 7 7 17 26 32 32 30 24 21 22 19 18 19 18 18 17 16 17 18 16 14 14 14 15 13 15 14 12 12 13 15 11 9 10 8 10 9 8 9 12 12 11 11 10 11 12 12 10 13 11 9 7 9 5 8 5 8 4 3 5 7 6 8 7 5 6 6 5 6 7 8 9 8 8 8 10 10 10
13 14 13 11 10 7 9 10 9 12 14 11 4 4 13 7 7 6 12 10 13 15 20 28 30 31 31 27 21 18 18 19 19 18 19 19 18 17 16 17 16 15 14 14 12 12 12 12 12 15 14 12 10 9 11 10 9 10 10 13 12 11 10 10 10 12 9 11 11 11 10 9 8 7 6 6 4 4 5 5 6 5 5 5 6 6 6 5 6 8 8 8 9 7 6 7 7
20 9 21 18 18 17 11 13 16 18 17 7 7 8 13 4 8 10 12 14 14 16 14 10 12 10 8 13 15 16 17 16 18 19 20 19 18 16 17 16 15 14 14 14 13 13 14 15 15 16 15 12 12 12 11 12 11 10 9 11 11 9 10 9 9 10 11 10 7 9 6 6 9 5 8 5 4 6 5 5 5 6 5 5 5 5 6 6 5 6 5 5 4 5 6 7 7
6 9 12 14 10 14 13 13 8 7 7 5 7 11 4 8 3 8 11 14 16 11 9 9 13 14 15 17 19 20 20 19 19 19 19 17 16 14 13 14 14 15 15 15 15 16 16 16 15 16 16 13 11 12 11 15 13 12 10 10 9 8 7 7 8 6 7 9 9 9 8 5 7 7 4 5 2 7 6 6 5 6 5 6 5 5 5 6 5 9 7 6 4 4 9 6 6
10 9 11 14 14 15 7 5 3 4 10 7 5 8 7 13 6 14 13 15 15 16 14 13 10 9 14 16 16 18 18 17 20 21 18 17 15 15 15 17 16 16 16 17 18 17 17 16 16 14 12 11 13 14 15 13 13 11 9 9 8 7 9 8 9 6 7 5 7 6 8 6 5 6 6 3 5 3 6 7 7 5 6 6 6 5 5 5 5 5 7 6 6 3 7 7 7
14 7 15 5 7 12 16 17 7 6 10 12 4 4 8 9 14 11 10 11 11 14 16 16 15 19 17 15 10 16 14 19 19 18 15 14 16 16 14 12 14 17 16 16 16 14 15 16 16 16 14 16 14 16 16 14 14 12 10 8 7 8 9 7 8 8 7 9 5 7 7 8 5 5 6 3 5 6 6 7 8 5 5 6 7 5 6 5 6 7 5 6 4 5 9 6 5
13 13 7 12 8 6 8 13 6 6 9 9 4 2 6 6 10 6 2 3 6 9 15 16 15 12 17 13 7 8 10 12 14 15 15 14 17 16 14 14 12 12 15 15 13 12 11 9 9 13 17 15 15 14 14 13 15 13 12 11 9 8 7 8 7 8 8 10 8 6 6 6 5 4 7 6 6 6 6 6 7 6 6 6 5 6 6 6 7 8 5 7 4 6 10 8 4
2 4 5 2 13 8 11 17 11 14 7 5 9 6 12 11 9 3 4 3 5 4 12 17 19 15 9 8 8 7 10 6 5 5 5 9 12 14 13 14 14 12 10 8 10 8 8 7 6 5 5 5 9 14 16 16 14 15 12 10 7 9 9 10 9 11 9 9 8 7 7 6 5 4 5 5 6 5 5 6 5 7 6 6 7 4 6 7 7 6 6 8 4 7 9 8 6
9 6 6 6 6 7 11 4 7 12 17 14 14 9 15 11 5 4 3 5 11 10 11 12 21 17 12 10 12 14 16 11 10 10 11 10 12 11 11 11 14 17 15 11 7 7 8 8 7 8 10 7 7 8 12 13 15 15 15 13 11 11 10 10 9 9 11 9 7 6 5 5 5 5 5 6 5 5 5 6 5 6 7 6 7 5 4 6 7 6 5 7 5 6 9 5 7
5 8 5 5 7 9 7 12 6 6 12 14 15 16 13 9 8 2 6 7 12 17 16 10 9 11 9 14 17 18 15 16 15 13 14 16 15 12 18 19 20 23 20 14 4 8 7 6 7 8 8 7 8 7 7 9 10 15 14 12 10 8 10 9 11 9 10 9 8 7 6 5 5 3 3 6 4 3 4 5 6 4 5 5 6 6 5 7 9 7 5 5 7 7 7 5 5
Wind_Speed
1 2 1 1 3 2 1 2 1 2 2 5 3 2 5 2 4 4 8 6 4 1 4 4 2 1 2 3 5 6 6 4 3 9 4 1 2 11 11 12 12 12 13 11 10 10 11 14 16 18 19 17 16 16 16 16 16 15 16 17 17 17 17 18 19 18 18 18 18 19 18 19 20 20 20 20 19 19 19 19 19 19 20 20 18 19 19 18 19 19 19 19 18 18 18 16 16
1 1 1 0 1 0 1 1 3 1 2 4 8 2 6 2 2 7 7 3 2 1 1 8 9 10 13 13 8 1 4 5 4 1 3 3 8 8 11 13 14 15 12 11 10 9 10 12 17 18 19 18 17 16 16 16 15 15 16 16 16 16 17 18 18 17 17 16 17 17 18 18 18 19 17 19 18 17 17 19 19 19 19 19 19 18 18 18 18 19 19 18 17 17 17 17 15
1 1 1 3 3 3 1 2 0 1 2 8 5 7 2 1 7 9 6 1 4 3 2 6 3 4 4 3 4 1 1 4 4 2 4 6 12 5 10 13 11 13 13 10 10 10 9 11 17 18 19 18 17 17 16 16 16 15 15 15 15 16 16 17 17 17 16 17 16 17 17 17 16 15 14 17 17 16 15 16 18 18 18 18 18 17 15 17 17 16 17 17 16 15 15 16 15
2 2 2 2 0 3 2 2 4 6 3 6 6 6 5 3 7 5 4 5 6 6 3 1 4 4 2 4 2 3 5 1 3 3 5 8 3 9 10 13 12 12 10 9 10 9 9 14 18 18 19 18 18 17 16 16 16 16 15 16 16 16 16 16 16 16 16 17 16 16 17 17 15 13 14 15 15 14 14 15 16 18 18 17 17 16 14 16 16 17 16 15 15 15 15 15 15
1 1 1 2 4 1 1 2 2 3 8 4 5 4 3 5 8 4 3 7 4 10 3 4 3 3 2 3 1 1 3 3 0 4 2 3 7 10 11 12 12 12 11 10 10 9 10 18 17 17 18 18 18 17 16 16 16 15 15 15 15 16 16 16 16 16 16 17 17 15 16 15 13 15 15 14 12 14 13 12 13 15 16 17 16 14 13 12 14 15 15 15 14 15 15 14 14
4 2 2 2 1 2 3 1 1 6 6 2 2 6 3 4 5 7 8 8 6 1 2 3 3 4 3 3 0 3 4 3 2 1 2 3 11 11 12 12 12 13 11 9 9 8 10 18 17 18 18 18 18 17 17 16 16 16 15 15 16 16 16 15 16 16 16 15 16 16 15 15 15 16 16 15 15 14 13 13 15 17 18 18 16 13 12 11 11 12 12 13 13 13 14 14 13
0 3 3 2 2 2 3 2 5 5 9 2 5 10 13 9 9 8 9 5 2 3 2 1 9 8 6 1 3 2 5 5 3 1 3 8 10 11 12 11 12 13 11 9 8 8 12 17 17 18 18 19 18 17 17 16 15 16 16 15 15 16 16 15 15 15 15 14 15 16 16 15 15 16 16 16 16 16 16 16 17 17 17 17 15 12 11 10 11 11 11 12 13 13 13 13 12
1 2 1 2 1 2 0 2 6 3 7 6 4 9 13 13 10 4 9 1 4 1 1 4 1 3 1 3 3 2 6 3 7 10 11 10 10 10 9 11 12 13 11 9 8 8 13 16 16 16 17 17 17 16 17 16 16 15 16 15 15 16 14 14 14 13 13 14 14 14 15 14 15 15 16 16 16 16 16 16 17 17 16 16 15 12 10 10 10 10 11 12 12 12 12 13 12
3 4 0 4 1 1 1 4 6 3 7 5 11 10 15 14 13 7 13 3 2 1 6 5 1 4 3 5 4 1 2 5 11 13 11 12 12 10 8 10 13 11 11 10 9 8 9 14 14 15 15 15 15 15 15 15 15 15 16 15 15 14 13 13 14 13 12 12 13 15 15 15 14 15 15 15 15 15 15 16 17 16 16 16 15 12 10 10 10 10 10 11 11 11 12 12 12
2 2 0 2 2 2 2 6 1 5 3 3 6 12 11 9 12 7 8 11 4 5 2 2 1 6 7 6 3 3 2 7 12 11 9 9 10 10 10 9 12 13 11 10 9 8 8 14 14 14 14 15 15 14 14 14 14 14 15 14 13 13 13 13 13 13 12 13 13 13 13 13 13 14 14 14 15 15 15 16 16 16 15 15 14 12 9 9 10 10 10 10 10 10 10 11 11
0 3 2 2 1 0 5 6 5 8 6 5 9 13 12 13 11 12 4 10 3 3 5 12 6 9 4 4 3 3 5 6 11 11 7 7 7 9 9 9 10 12 11 11 9 8 8 8 15 14 14 14 14 13 14 14 14 14 14 13 13 13 13 13 14 14 13 13 13 14 14 13 13 13 13 14 14 14 15 15 16 15 15 14 13 12 9 8 9 9 9 8 9 9 9 10 11
1 1 1 3 2 6 4 2 6 9 8 5 6 10 4 7 10 4 4 6 3 3 4 4 7 10 9 5 3 3 5 5 5 9 7 6 7 7 9 7 9 10 11 11 10 9 8 8 8 14 16 14 13 13 14 14 15 15 14 14 13 13 13 13 13 13 13 14 13 13 13 13 13 14 14 14 14 14 14 15 15 15 15 14 14 12 9 7 8 8 7 7 8 8 9 10 11
2 1 5 3 2 1 2 3 7 4 6 6 4 5 5 8 5 7 5 3 7 6 3 3 15 3 5 5 3 4 6 3 4 7 7 7 7 6 7 8 10 12 10 10 11 10 9 8 8 8 12 18 14 14 15 15 15 14 14 14 12 12 13 12 13 13 13 13 13 13 13 12 13 13 13 14 14 14 14 15 15 15 14 15 14 13 10 7 7 6 6 7 7 8 9 10 11
3 4 4 1 0 1 1 4 3 4 6 8 2 7 7 6 5 6 9 5 4 3 1 10 5 7 7 6 5 6 5 3 5 6 7 8 7 8 8 8 10 11 10 10 10 10 9 8 7 7 9 9 9 13 15 15 14 14 13 13 13 13 12 12 12 12 13 11 12 12 12 12 12 13 14 14 15 14 14 14 14 14 13 13 13 13 11 8 5 5 5 6 7 7 9 10 11
1 1 2 1 2 0 3 3 2 0 8 5 4 7 12 3 6 5 4 7 2 1 5 4 4 3 6 11 6 8 9 8 7 9 9 9 9 8 9 8 9 10 9 10 10 10 10 9 8 7 7 8 9 7 7 12 15 14 13 13 13 13 12 12 12 11 13 13 12 11 11 12 12 13 14 14 14 14 13 13 14 13 12 12 12 12 12 10 6 4 5 5 6 6 7 9 10
2 2 1 0 3 2 6 2 1 1 9 4 4 6 9 11 5 1 2 4 4 2 2 2 2 1 3 9 3 13 12 9 9 11 11 11 10 8 8 8 7 9 9 9 9 9 9 9 8 7 7 8 7 7 7 9 12 14 13 14 13 13 12 12 12 12 13 13 12 12 12 9 9 9 13 10 14 14 11 8 12 12 12 11 11 10 11 10 8 3 3 5 5 5 6 8 10
1 1 0 0 6 3 4 3 3 3 7 6 6 7 8 8 5 2 5 6 12 1 5 4 3 3 9 1 12 14 10 11 12 13 12 9 8 7 6 5 6 7 6 8 8 8 9 9 9 7 9 9 8 8 7 7 10 13 11 13 13 13 13 13 13 14 13 12 10 11 9 6 5 5 6 5 11 7 8 10 12 13 11 10 11 10 10 10 8 4 3 5 5 5 6 9 10
2 1 3 3 6 3 5 5 3 2 4 7 10 6 7 8 3 2 4 11 8 7 7 2 10 10 8 9 15 13 11 12 12 13 9 7 7 10 10 7 7 8 8 8 8 9 9 8 8 9 8 9 8 6 5 6 8 9 6 7 7 10 11 12 9 7 9 5 10 8 5 4 4 5 5 7 5 6 8 11 12 12 11 11 10 9 10 9 8 6 2 2 4 5 6 4 5
3 1 3 8 4 6 4 2 5 2 7 8 10 5 5 7 2 1 5 2 2 8 6 7 10 9 10 10 13 14 13 12 11 12 11 10 8 11 10 9 8 8 8 7 7 8 6 7 9 8 8 8 8 7 6 5 5 4 4 5 6 9 8 7 5 6 4 5 5 4 4 4 4 4 4 5 5 9 7 10 11 11 11 11 10 9 9 9 7 5 3 2 3 4 2 4 4
5 4 4 8 5 3 3 4 7 5 9 12 10 6 6 10 2 0 2 3 1 7 7 5 8 13 12 12 13 12 11 11 11 11 10 9 8 8 8 7 8 6 5 5 7 5 6 7 9 8 9 8 8 5 4 4 5 5 4 4 5 4 5 5 5 5 5 5 5 4 5 4 3 3 7 11 9 5 6 9 9 9 10 10 10 7 8 7 6 4 3 3 2 2 1 4 4
2 3 6 4 2 5 6 3 6 10 7 5 7 7 7 6 0 2 6 5 2 5 8 15 14 18 16 15 14 12 11 11 11 11 11 11 12 8 7 8 5 3 3 3 5 6 6 7 7 7 7 7 7 4 5 5 4 5 4 5 4 4 5 5 5 4 5 5 4 4 4 3 3 2 3 4 4 5 4 3 3 3 3 4 6 4 4 3 3 2 2 1 0 0 1 4 4
2 7 7 4 2 5 9 6 8 8 9 5 6 5 6 1 3 5 9 6 6 9 13 5 16 18 19 17 14 10 10 10 12 12 11 13 15 13 13 12 11 13 10 7 7 7 6 7 8 7 8 7 7 6 6 5 5 5 5 5 5 4 5 5 4 4 5 5 5 5 4 4 4 3 4 3 3 4 4 4 2 2 2 2 3 4 3 3 2 1 1 1 0 1 1 3 3
4 4 5 6 5 7 4 6 8 4 6 8 6 4 1 1 1 5 8 7 5 0 2 6 13 18 17 15 14 12 11 10 11 11 14 12 12 11 8 7 8 9 8 8 9 7 8 8 9 8 8 7 7 8 6 6 4 4 5 5 6 5 4 5 4 4 4 5 5 5 5 4 4 4 4 3 3 3 4 2 1 1 2 2 2 4 3 3 3 3 3 3 2 2 3 4 4
3 7 3 6 3 7 8 8 10 8 7 11 9 4 6 6 5 4 4 7 1 5 8 8 7 11 16 13 10 12 11 12 10 12 14 15 11 11 12 12 11 9 8 9 8 9 10 9 9 10 9 9 8 8 8 6 4 4 4 5 5 6 4 5 4 3 3 4 4 4 4 4 4 5 4 4 3 3 2 2 1 1 2 3 2 4 4 3 3 2 2 2 3 3 5 4 4
5 6 4 5 5 6 9 7 8 8 9 10 8 7 12 7 3 3 6 8 6 9 10 11 11 12 12 12 12 13 12 12 12 12 8 5 7 8 8 9 10 11 12 11 10 10 11 11 9 10 9 8 7 7 9 6 5 5 4 6 6 6 5 3 4 3 4 4 4 4 5 5 3 4 4 4 4 3 2 2 2 2 2 2 3 4 4 4 3 3 3 2 3 4 5 5 5
5 10 6 5 6 6 6 5 7 9 6 4 5 9 10 11 2 2 3 3 7 11 11 12 12 12 13 13 12 13 12 11 11 11 9 6 7 10 11 12 11 11 12 13 12 11 12 12 13 12 11 10 8 6 6 7 5 5 4 5 5 4 4 4 4 4 4 4 4 4 3 4 4 5 4 3 4 3 3 2 2 2 3 2 4 4 3 4 4 3 3 2 3 3 5 4 5
3 3 4 6 7 6 5 5 7 5 4 2 4 8 7 4 3 3 1 2 8 11 11 11 12 13 12 10 10 10 13 11 12 9 7 7 9 10 11 11 12 12 11 11 9 10 13 13 13 13 11 10 9 7 7 8 6 4 4 5 5 6 5 4 4 4 4 4 4 4 3 2 3 3 4 4 2 3 3 4 3 2 2 1 3 3 2 3 3 4 3 2 2 4 4 4 6
3 5 4 5 6 6 7 6 9 3 5 6 8 10 10 4 1 7 6 7 10 14 11 12 12 12 9 11 11 9 8 9 8 10 13 12 10 10 10 11 11 10 11 10 7 7 10 12 13 13 12 11 10 8 8 6 4 5 4 4 4 4 4 4 3 3 3 3 2 3 3 3 3 3 3 3 3 3 2 3 3 3 2 1 2 2 3 3 3 3 3 2 2 3 4 4 4
4 0 6 7 7 7 2 5 5 4 5 4 7 4 6 3 4 6 9 12 10 13 14 14 12 11 8 9 9 8 9 8 5 10 10 8 7 7 10 7 8 10 5 7 7 7 8 9 10 10 10 10 10 9 8 8 6 5 4 4 4 4 3 3 4 3 2 2 3 3 4 4 3 4 3 3 3 2 2 2 2 2 2 2 2 3 3 3 3 3 3 2 4 4 5 5 5
1 0 0 6 6 9 7 2 5 3 3 2 6 3 6 8 10 2 7 11 10 11 13 13 10 10 8 9 7 6 6 6 5 7 8 7 7 7 8 4 4 5 6 7 8 9 7 6 7 7 8 8 8 7 7 7 6 4 4 3 3 4 2 4 4 3 3 3 4 3 4 3 3 3 4 3 3 3 2 2 2 2 2 2 2 3 3 2 3 4 4 4 4 4 4 4 6
2 4 0 4 3 6 3 0 2 1 3 3 5 4 7 8 11 3 5 14 15 12 12 12 11 10 8 8 7 7 6 7 8 5 4 5 5 6 5 4 6 7 8 8 9 9 9 6 7 7 8 8 8 6 7 6 4 4 4 3 3 4 3 3 3 3 2 1 3 3 3 3 3 3 3 4 3 3 4 2 2 2 2 2 3 2 4 2 3 4 4 5 4 4 4 4 4
1 3 7 4 5 7 7 5 4 4 3 4 5 3 7 8 11 3 10 13 15 14 12 12 12 11 10 7 8 8 7 6 4 4 5 5 7 7 6 7 7 9 10 11 9 9 9 8 9 8 9 9 8 6 4 4 4 4 4 4 4 3 3 4 4 3 2 1 2 3 3 3 3 3 3 3 4 3 4 4 2 4 3 2 2 3 3 4 3 4 3 4 6 4 5 5 4
3 3 6 5 1 5 8 2 1 6 3 1 6 6 2 5 11 4 8 14 13 13 12 13 13 12 8 8 8 8 7 6 5 6 6 7 7 4 6 8 9 11 10 11 10 10 9 9 10 11 10 8 7 6 5 5 5 5 4 4 4 4 4 4 3 2 2 3 2 3 3 3 3 3 3 2 3 3 3 3 2 3 3 3 3 2 3 2 4 5 3 2 3 5 5 6 5
5 3 2 2 3 4 4 7 3 0 2 3 1 3 5 6 7 3 9 14 11 11 13 13 12 12 11 9 9 9 9 8 8 7 5 6 4 4 4 7 8 10 10 10 9 10 11 9 9 10 9 8 6 7 6 5 5 5 4 4 3 4 3 2 2 2 2 2 2 3 3 2 3 3 3 3 3 2 2 3 3 3 3 3 3 3 3 2 3 4 5 3 4 5 5 6 6
2 1 2 6 3 4 7 1 5 8 1 2 2 1 6 10 9 2 10 11 14 14 14 14 13 12 10 10 10 9 8 8 6 3 5 4 4 4 5 6 6 7 7 9 8 9 9 8 8 9 9 7 6 7 7 5 5 4 4 4 3 2 1 1 2 2 2 3 2 2 3 3 3 3 3 3 4 4 3 3 4 3 3 3 4 4 4 3 3 3 5 5 5 5 5 5 6
2 2 1 2 4 6 5 3 2 2 6 8 5 6 9 10 8 2 7 10 14 13 9 9 10 12 11 10 8 7 7 7 4 6 8 5 6 6 5 5 4 5 6 8 9 9 9 8 8 8 8 7 6 7 6 6 5 5 6 4 3 3 2 2 2 2 3 4 3 4 4 4 4 4 4 3 4 4 4 3 4 3 3 3 3 4 4 4 5 6 5 6 6 6 5 5 6
2 1 1 4 5 9 7 4 2 4 5 5 6 7 6 11 11 2 9 9 7 9 12 10 10 11 11 11 9 8 7 6 5 7 6 4 7 6 5 5 5 6 6 8 9 9 9 9 9 10 8 7 6 7 6 7 6 6 4 5 4 4 4 2 3 3 4 2 3 3 4 5 4 4 3 4 4 3 3 3 4 3 3 3 3 3 3 4 3 4 5 4 6 7 3 3 4
2 4 4 8 3 11 8 5 4 8 3 5 5 5 9 13 10 2 6 12 14 14 14 14 13 13 13 13 11 10 7 4 7 6 5 5 7 7 6 6 6 9 7 7 9 9 8 9 10 10 8 7 7 7 7 6 5 6 6 5 3 3 3 4 3 2 3 3 3 4 5 5 5 4 3 3 3 4 4 3 4 4 4 4 2 3 4 4 4 4 5 5 2 5 3 2 3
1 3 4 5 9 4 8 4 5 4 3 7 5 6 11 14 10 4 12 15 15 18 20 19 18 15 14 12 11 10 8 9 9 8 7 7 8 8 6 6 6 7 7 7 7 9 9 8 8 8 7 8 7 7 7 6 3 4 4 3 4 2 1 1 2 2 3 4 3 3 4 4 5 4 4 4 4 3 4 4 4 4 4 4 4 4 4 5 5 5 5 7 5 2 3 1 1
3 1 2 9 2 3 7 2 4 4 1 6 6 7 12 10 3 9 12 16 13 17 21 20 19 20 17 18 18 15 13 13 15 13 11 8 9 8 7 7 8 7 6 7 8 9 7 7 7 8 8 7 7 5 4 4 5 4 3 3 3 2 3 3 3 3 3 3 3 1 2 3 4 4 4 4 4 4 5 5 4 4 4 3 5 5 4 5 4 4 4 4 6 6 2 1 2
3 5 5 8 4 5 6 5 4 5 4 3 5 4 9 5 2 1 3 3 9 8 4 4 7 9 7 5 4 9 16 16 14 13 11 11 11 10 9 8 7 8 8 8 8 8 6 8 7 8 7 6 5 6 6 6 6 5 4 4 4 5 5 4 4 2 2 2 3 1 2 2 3 4 4 4 4 5 5 5 5 5 4 4 4 4 5 5 4 4 4 5 5 7 4 2 2
4 6 12 9 7 9 8 6 4 4 7 2 2 5 6 5 6 7 4 4 8 9 14 14 13 13 12 12 10 8 8 11 18 20 16 12 11 9 8 9 8 8 9 8 7 7 7 6 6 6 5 5 6 5 6 6 6 7 7 7 5 4 4 4 4 5 3 3 4 1 1 1 2 3 3 3 3 4 5 5 4 5 5 5 5 5 4 4 4 4 4 4 4 1 6 5 2
4 8 10 13 12 9 8 10 1 2 3 3 2 1 7 6 5 3 4 9 10 7 12 15 14 12 12 11 12 11 13 12 8 7 7 11 11 10 10 10 9 8 7 7 7 6 6 6 5 5 6 5 5 5 5 5 5 5 6 6 6 7 7 3 2 3 5 3 2 3 2 1 1 3 2 2 3 3 3 3 3 4 4 4 4 5 5 5 5 4 4 4 4 4 4 5 6
5 6 8 8 8 8 9 8 6 7 2 3 1 3 3 7 4 1 2 8 10 11 11 12 12 13 12 12 12 12 12 12 12 12 9 9 10 10 12 10 9 7 6 7 7 6 7 7 6 6 5 5 4 4 4 5 7 6 6 5 6 6 7 6 5 4 1 2 3 2 1 1 0 0 1 2 3 3 3 2 2 3 3 3 4 4 4 4 4 3 3 3 4 5 6 7 5
8 3 9 7 9 9 7 5 7 4 1 9 2 1 0 3 5 3 5 9 10 14 15 15 12 12 11 11 12 12 12 13 11 10 10 11 11 10 9 9 6 6 6 8 7 7 7 7 6 6 6 5 4 4 4 4 6 7 7 7 6 4 4 4 3 3 3 3 4 2 2 1 1 1 0 1 1 2 3 3 3 3 3 3 4 4 3 3 5 5 4 4 4 4 4 4 6
13 8 3 3 3 4 5 6 4 2 1 7 7 2 1 6 6 4 2 5 12 12 13 14 13 14 13 11 9 10 10 9 8 7 7 7 8 8 6 7 7 5 4 5 6 7 7 7 7 7 6 5 5 4 5 5 5 7 7 7 7 4 4 4 4 4 3 3 4 2 1 1 1 1 1 1 1 1 2 2 3 4 3 4 3 5 4 4 3 4 5 5 3 4 2 5 5
1 5 3 3 2 1 1 2 3 2 2 7 7 4 3 4 4 5 5 2 5 7 6 5 7 9 8 6 9 11 11 10 9 9 8 7 6 7 6 8 7 6 4 5 7 7 7 7 8 8 7 6 5 6 6 7 6 6 8 8 8 7 5 6 5 4 3 3 4 2 2 2 1 2 2 1 2 2 3 3 3 3 3 3 4 5 6 6 5 5 4 3 4 5 4 3 3
5 2 3 1 4 4 1 1 3 2 5 9 5 5 7 5 2 1 3 3 6 11 15 15 14 17 14 12 12 11 11 11 10 10 9 9 8 6 6 7 9 8 7 7 6 7 7 7 8 9 6 6 5 6 6 6 6 5 6 8 7 7 7 7 8 7 6 5 4 4 2 4 3 3 2 2 2 1 2 3 3 3 3 4 4 4 4 5 5 5 5 5 4 3 3 4 4
5 2 3 5 3 1 3 1 2 4 7 5 0 4 3 7 3 1 3 5 5 10 13 17 18 19 16 14 13 10 10 11 11 11 10 10 11 11 10 9 9 9 9 9 9 8 7 8 9 10 7 6 7 5 7 5 5 6 7 7 7 6 6 7 7 7 5 6 5 4 4 5 3 5 3 3 1 1 2 4 3 4 3 2 3 3 3 3 4 5 5 5 4 5 6 6 6
8 7 6 5 2 0 2 2 1 5 6 7 2 1 3 2 2 2 4 7 9 9 12 13 17 18 19 17 12 10 10 12 11 11 11 11 11 10 10 10 10 9 9 8 8 8 7 7 8 10 9 8 7 6 7 7 6 6 6 8 8 7 6 6 6 7 5 6 6 6 5 5 5 4 4 3 2 1 2 2 3 3 2 3 3 3 3 3 4 5 5 5 5 4 4 5 4
10 4 10 8 7 4 3 3 4 8 9 2 3 3 3 2 2 5 7 9 9 9 8 6 6 4 3 5 9 10 11 10 10 11 12 12 10 10 9 9 9 9 9 8 8 8 9 9 9 11 9 6 6 7 7 8 7 6 5 6 7 5 6 5 5 6 6 6 4 5 4 3 5 3 5 2 1 3 2 3 3 3 3 3 3 3 4 3 3 3 3 3 2 3 3 4 4
1 3 6 6 4 6 3 5 3 3 1 0 1 1 0 1 1 3 3 5 8 6 5 5 5 7 8 9 10 11 11 11 10 11 12 11 10 9 8 8 8 9 9 8 9 9 9 9 9 10 10 7 7 7 7 8 7 5 5 6 6 5 4 4 5 4 4 6 5 6 5 3 4 4 3 3 1 2 3 3 3 3 3 3 2 3 3 3 3 5 3 3 3 2 5 4 4
3 4 4 6 6 8 3 1 0 2 3 1 0 3 3 6 2 4 6 9 9 8 9 9 7 4 4 9 8 9 10 10 11 12 11 11 10 10 9 8 8 9 9 10 10 9 10 10 9 7 6 7 8 9 9 8 8 7 6 6 6 5 6 6 6 4 5 3 4 4 5 3 3 3 3 2 3 2 3 3 3 3 3 3 3 3 3 3 3 3 4 3 3 2 3 4 4
5 2 7 2 3 5 5 5 2 1 3 3 1 1 4 3 2 5 6 7 7 7 7 10 10 11 6 5 2 7 7 10 10 9 7 9 10 10 9 7 8 9 10 9 8 7 7 7 8 8 8 9 8 9 10 9 9 8 6 5 4 5 5 5 5 5 4 5 3 4 4 5 3 3 3 2 3 4 3 3 4 3 2 3 3 3 3 3 4 5 4 3 2 3 5 3 2
8 6 4 3 1 1 2 4 0 0 1 1 1 1 2 2 3 3 1 2 4 5 5 9 10 5 7 9 5 4 4 5 7 6 5 6 10 9 9 9 8 7 7 7 6 4 3 3 3 5 8 8 9 8 9 8 9 7 7 7 6 5 5 5 4 4 4 5 5 4 4 4 3 3 4 4 4 4 4 3 4 3 3 3 3 3 3 3 4 5 3 4 3 4 6 5 3
1 3 2 0 5 3 4 5 4 5 2 2 3 2 3 4 3 1 2 2 3 2 2 4 10 10 2 3 4 3 3 3 3 3 2 2 7 8 8 9 9 8 6 5 6 5 5 4 4 3 2 3 5 8 9 9 8 9 7 6 5 5 6 6 6 7 6 5 5 5 4 4 4 3 3 3 4 4 4 4 3 4 3 3 3 2 3 4 4 4 4 5 3 4 6 5 4
2 1 1 0 1 2 4 1 1 4 5 5 4 2 5 4 2 1 2 3 7 6 5 4 3 5 6 4 7 9 6 3 5 5 4 5 6 6 4 4 6 8 8 6 4 5 5 5 5 4 5 4 5 6 7 7 7 9 10 9 7 7 7 6 6 6 7 6 5 4 3 4 4 3 3 4 3 3 3 4 4 3 4 4 4 3 2 3 4 4 3 4 4 4 6 4 5
2 3 2 1 2 3 2 4 2 2 4 3 5 5 5 2 3 0 3 2 6 8 8 6 5 4 5 2 9 10 6 3 7 8 8 8 8 8 10 10 10 12 9 5 2 4 4 4 3 3 3 3 4 3 4 4 4 7 9 8 7 5 6 6 7 6 7 6 5 4 4 4 4 2 2 4 3 2 3 4 4 3 3 3 3 3 2 3 4 4 3 3 4 4 4 4 4
Wind_Direction
163 203 215 136 80 102 70 2 140 300 72 248 285 190 255 231 249 332 269 300 341 275 282 337 199 180 174 195 143 98 28 149 200 140 213 221 125 138 129 123 133 136 138 138 141 144 140 135 135 133 132 128 126 125 125 126 121 119 118 116 114 113 113 117 118 119 119 120 120 120 120 120 121 122 120 117 116 116 116 115 112 114 115 114 112 111 109 109 112 111 113 110 107 104 103 105 104
231 246 63 66 82 74 251 125 99 351 27 321 246 139 244 257 154 224 245 209 212 222 67 57 56 64 79 91 121 125 47 15 268 168 79 100 116 112 132 136 145 141 138 140 140 139 138 137 136 134 133 130 129 129 130 128 126 123 120 117 115 114 114 114 117 119 120 120 120 120 120 120 120 120 117 119 120 120 120 120 118 117 114 114 115 114 111 113 115 115 112 111 107 107 106 103 98
263 43 11 25 27 76 105 43 264 54 168 246 271 207 287 288 226 241 239 151 251 224 222 101 65 36 60 62 17 15 246 353 60 77 87 137 121 166 142 139 141 136 138 139 139 138 135 138 137 135 133 132 133 134 133 130 128 124 120 117 116 115 115 115 116 119 120 121 120 121 120 119 119 114 108 119 124 129 126 117 118 118 116 115 114 114 115 117 118 115 112 112 109 106 103 102 101
90 37 130 73 80 18 72 28 92 137 202 230 307 245 219 227 266 266 256 240 230 244 214 82 40 310 137 71 121 67 59 321 350 139 139 175 164 139 137 134 135 135 135 138 138 138 139 140 137 134 135 134 136 137 134 133 130 128 123 120 118 118 118 118 118 120 122 123 120 120 119 119 116 107 107 110 107 104 108 117 122 121 118 116 116 115 114 117 117 117 115 114 111 109 105 98 95
77 325 78 87 110 5 100 189 152 116 238 176 221 270 232 236 251 281 332 295 280 211 191 114 81 346 80 95 312 91 212 74 40 257 79 52 108 132 131 130 135 140 141 137 138 139 142 140 136 135 136 136 138 139 138 136 133 129 124 120 118 119 120 121 122 122 123 124 120 118 119 118 106 100 98 99 105 116 116 117 115 116 120 119 114 111 108 109 112 115 115 114 111 107 100 96 92
58 52 347 89 83 188 49 36 285 229 235 153 267 265 226 240 301 320 312 329 327 71 160 136 162 172 38 11 354 109 131 139 202 38 95 135 133 133 130 132 135 142 139 136 139 142 142 140 138 138 139 140 142 142 140 137 134 130 125 122 119 118 120 120 122 123 121 125 124 122 121 115 103 100 99 98 99 101 102 99 97 97 102 108 110 111 109 106 102 101 104 102 97 94 90 88 86
222 43 356 29 9 64 152 168 246 240 263 214 253 285 280 291 278 309 307 348 310 18 332 181 123 118 95 266 52 31 295 157 148 149 87 127 124 127 133 134 136 137 135 136 138 137 143 141 141 141 142 144 145 141 139 137 132 131 124 122 122 120 120 122 122 123 123 126 126 125 122 111 104 101 100 99 96 97 100 104 102 103 107 111 114 115 112 106 102 100 100 97 95 93 90 87 82
89 106 293 104 229 47 213 228 253 178 277 196 246 264 286 282 286 291 289 52 304 254 86 146 349 85 159 238 150 283 2 19 98 92 108 122 125 125 130 134 134 136 135 132 134 138 141 140 141 141 141 141 141 139 139 135 134 131 125 123 123 119 119 121 121 120 124 127 126 125 125 113 107 106 104 102 103 103 104 107 108 108 110 113 115 117 111 105 102 99 96 96 96 93 88 85 81
353 85 325 75 55 23 8 250 258 238 270 275 274 260 273 278 284 277 283 234 256 183 166 185 285 68 217 96 86 5 20 65 93 113 124 132 136 134 133 135 136 135 135 133 133 137 136 140 137 135 137 138 138 137 136 135 135 129 126 124 122 121 121 121 123 123 122 121 125 126 124 120 115 112 111 110 110 109 108 109 111 114 117 119 120 122 119 111 106 101 97 95 92 90 87 83 78
30 76 227 137 134 247 329 284 293 248 252 240 271 278 266 274 279 251 258 293 214 155 238 33 150 142 137 106 102 18 47 91 106 106 125 134 132 129 127 133 138 135 133 130 132 130 133 137 132 131 133 135 137 137 135 134 129 126 124 124 124 124 124 125 125 123 122 125 127 126 124 124 121 120 120 119 118 115 114 115 116 118 118 121 123 123 122 113 108 105 98 89 85 81 78 74 75
12 5 153 79 45 303 244 278 271 292 268 294 283 262 260 273 266 279 224 254 115 137 117 106 83 119 109 97 50 54 85 105 120 126 138 128 123 124 122 129 137 133 130 129 127 125 128 130 131 129 130 132 133 130 132 129 129 124 125 125 125 124 126 127 126 125 126 128 126 126 126 124 125 125 125 124 121 118 117 119 122 122 123 123 124 124 122 114 106 100 93 88 85 78 71 70 67
50 85 39 103 179 173 235 215 266 277 291 283 270 282 296 257 272 266 222 215 128 140 194 208 148 129 91 113 112 63 74 74 107 125 126 116 108 109 119 123 125 124 126 123 121 122 122 125 128 135 130 127 128 130 130 131 129 127 126 127 126 125 127 127 126 126 128 126 125 126 125 127 129 129 128 126 124 123 123 124 125 127 128 126 123 122 122 113 101 92 87 84 78 74 70 64 63
122 111 85 93 230 119 232 262 268 300 311 288 237 302 297 277 234 205 196 93 104 173 235 219 141 151 116 146 128 110 105 57 109 124 115 110 107 103 104 115 122 126 121 119 119 120 120 118 127 130 138 135 129 132 131 130 126 126 127 127 126 126 127 128 128 129 126 127 131 128 128 128 129 129 127 127 125 125 125 126 127 127 127 126 124 124 119 111 102 95 81 71 67 63 62 59 58
118 176 117 238 87 189 177 252 297 331 290 256 330 295 316 317 291 173 125 86 161 191 288 129 127 117 89 113 146 153 141 130 116 109 100 100 105 105 106 112 118 121 116 119 121 121 119 118 119 127 134 132 132 135 134 130 128 128 129 129 130 130 131 131 131 130 128 132 136 132 131 131 130 129 127 126 126 125 127 127 127 129 128 127 127 123 120 114 100 95 85 71 61 55 57 55 56
173 194 83 124 302 39 246 198 195 176 276 292 273 340 337 360 339 55 91 115 11 103 109 17 163 93 190 164 184 176 155 147 117 107 100 92 90 99 107 112 113 114 112 114 114 117 118 119 116 122 124 125 126 128 132 135 132 133 132 132 133 134 136 134 132 132 135 136 138 139 134 134 133 128 126 123 123 125 126 126 128 127 128 127 125 125 123 118 106 83 81 65 57 49 51 55 55
176 82 87 157 254 182 270 199 234 266 262 359 288 352 344 326 28 61 272 198 134 104 46 158 283 160 182 187 173 138 145 127 116 107 102 98 96 95 99 101 100 105 109 112 111 110 117 116 118 118 120 124 126 128 134 139 138 138 136 137 136 137 137 137 138 137 134 135 142 143 139 135 130 124 123 123 123 123 120 121 126 125 125 123 122 126 120 117 114 91 70 60 48 42 45 51 55
80 76 316 75 273 171 256 185 151 230 263 284 311 22 359 324 322 47 28 79 118 46 64 2 311 346 147 85 118 118 122 117 114 109 105 107 108 106 102 96 92 92 102 108 113 117 113 115 120 119 123 124 129 132 137 142 146 140 135 137 137 138 141 142 142 138 136 137 139 138 130 125 129 123 115 117 123 123 124 126 128 125 124 125 124 124 119 113 110 103 59 60 54 41 39 54 52
82 145 136 258 224 229 220 194 183 225 279 306 329 350 357 337 341 329 22 40 64 62 49 8 44 54 74 105 113 118 119 118 123 119 119 114 118 118 118 112 107 104 105 110 116 118 122 121 118 121 124 131 132 130 134 149 147 139 130 129 132 140 143 140 133 128 127 123 128 119 112 115 101 109 118 124 121 124 126 133 127 126 129 126 125 124 115 113 114 121 112 72 65 50 44 60 55
145 164 127 226 205 234 164 206 243 331 289 301 304 329 12 298 238 324 72 358 22 65 43 51 88 78 84 99 122 129 128 126 128 126 125 124 129 136 132 128 112 105 106 110 120 121 118 120 120 121 130 132 129 130 146 146 118 104 112 125 135 138 132 117 104 111 97 107 102 108 109 118 122 112 112 123 110 126 131 128 125 131 131 128 126 121 114 112 116 121 129 82 66 74 63 73 72
218 136 221 244 200 254 258 281 285 284 280 292 304 313 1 296 151 277 109 127 48 142 131 103 122 133 131 132 131 132 128 125 127 124 118 107 108 112 96 80 105 89 69 82 119 112 115 119 122 127 132 131 125 133 120 101 104 107 106 103 97 97 96 101 109 115 110 111 117 115 116 119 104 129 141 136 128 118 126 124 130 131 127 127 123 112 111 117 110 104 101 95 59 53 89 82 89
267 143 219 235 214 268 267 205 241 261 264 277 290 308 329 308 305 117 141 80 288 272 197 160 172 157 152 150 145 141 134 126 123 119 108 86 55 38 67 93 85 50 38 66 104 127 120 119 123 122 118 115 116 114 100 101 100 103 101 104 99 98 102 107 113 114 118 112 107 104 104 105 108 100 83 87 96 110 91 81 82 75 83 94 104 95 86 79 69 54 26 36 62 92 64 82 101
112 213 241 246 286 277 271 271 266 260 277 292 284 331 284 308 58 149 151 154 220 207 214 234 159 157 151 151 147 135 128 120 124 119 102 117 134 147 159 158 149 143 144 136 137 130 128 124 123 126 121 123 122 109 116 124 137 124 116 123 114 100 105 108 105 116 117 121 121 116 106 112 109 105 95 90 80 88 88 78 85 95 105 114 111 96 75 70 62 59 55 53 148 183 147 120 129
256 286 243 228 221 245 288 291 279 292 299 296 304 258 338 112 255 212 176 186 240 359 75 145 168 160 150 137 136 135 132 130 130 127 131 146 167 155 102 108 128 141 147 146 143 138 138 129 128 125 120 126 130 136 139 133 130 121 127 131 126 122 117 112 108 118 129 131 126 127 129 128 117 108 107 100 88 82 88 87 118 163 137 103 82 88 74 67 68 69 73 83 74 75 65 79 136
196 251 272 282 225 235 263 273 278 278 268 273 265 353 312 273 275 219 212 248 94 112 109 109 121 133 146 136 137 137 137 137 136 136 151 168 161 143 147 144 152 160 149 150 145 147 143 134 137 137 142 145 143 144 138 136 127 128 139 125 122 137 134 128 128 137 124 129 132 131 125 128 135 130 131 119 112 92 122 148 163 153 120 99 84 100 100 80 74 70 81 57 66 59 75 81 99
222 261 269 264 260 245 258 261 280 287 277 265 299 294 268 247 225 106 237 255 131 114 114 119 136 139 142 140 140 145 147 147 150 155 166 124 112 125 143 152 156 158 156 154 156 149 142 142 141 138 138 137 143 147 142 130 146 143 149 134 134 147 139 144 139 146 137 136 128 128 130 135 141 133 131 121 106 125 159 178 161 145 116 116 105 86 109 102 83 82 69 58 54 72 85 89 93
209 231 252 275 276 281 271 290 265 260 272 256 285 273 265 260 140 192 271 256 132 117 115 131 137 144 149 154 153 156 155 156 150 162 158 131 137 135 163 168 164 164 166 160 160 154 143 150 149 150 149 147 150 146 121 134 153 153 151 135 127 138 136 147 144 154 147 130 129 134 138 151 150 136 127 117 132 160 175 167 140 124 110 119 109 102 107 112 113 90 72 58 65 79 90 99 94
177 237 236 251 266 277 274 238 266 267 241 227 220 261 269 281 29 291 354 134 125 115 124 133 147 155 157 155 155 161 159 163 166 145 134 156 158 167 174 176 174 164 161 167 162 154 153 153 149 151 151 147 150 147 144 157 153 155 152 147 149 152 150 151 157 151 136 126 140 136 132 133 116 116 127 132 133 163 172 147 132 123 102 80 106 107 101 115 114 119 135 136 114 104 94 79 98
284 260 316 296 277 263 260 286 273 287 290 211 211 247 255 304 228 241 176 152 144 132 138 146 158 163 157 158 164 162 152 159 164 158 166 171 174 174 183 181 178 160 163 163 160 151 151 153 150 152 151 151 152 145 151 140 162 159 156 145 153 138 147 152 138 118 131 122 128 118 117 115 112 114 128 136 161 175 168 127 134 122 123 77 103 111 106 98 107 98 94 95 85 84 88 74 79
271 355 308 298 322 310 233 222 242 159 254 207 187 257 303 318 212 239 163 147 149 141 147 158 165 169 155 164 162 162 163 161 180 165 182 178 173 181 188 191 163 160 148 127 130 144 146 138 140 154 151 151 149 157 151 152 168 165 148 163 142 133 149 133 133 136 98 120 119 115 123 123 135 141 137 158 172 174 154 118 109 113 121 120 111 115 107 105 97 100 84 75 80 72 86 84 80
325 321 232 329 337 308 277 241 262 207 257 169 116 268 264 265 247 277 172 140 131 144 152 161 168 173 158 166 167 159 153 155 173 191 170 175 173 184 194 172 146 140 124 111 130 140 140 137 144 147 155 144 153 154 146 155 159 160 140 125 114 117 128 129 131 135 154 170 149 131 128 135 150 133 148 160 147 149 142 133 135 126 124 127 120 120 113 119 115 108 112 92 86 84 85 99 104
264 266 34 254 334 263 289 26 337 202 262 134 170 206 276 266 269 235 179 151 144 159 164 162 166 170 155 163 164 166 168 179 180 176 175 170 165 185 183 148 129 123 122 130 149 147 148 141 143 153 160 148 158 155 152 147 140 134 121 116 116 125 138 132 130 142 166 153 123 120 129 142 139 144 162 155 160 151 156 159 164 143 142 138 133 111 116 110 124 122 114 108 88 90 94 75 92
326 3 282 325 189 283 306 277 214 233 303 116 139 234 230 251 258 152 181 165 153 156 168 165 165 173 162 156 161 175 182 173 163 168 177 163 172 182 168 155 136 141 149 153 153 151 145 140 142 144 163 159 161 147 110 112 123 115 120 136 136 131 138 147 146 156 144 113 107 124 135 137 142 155 160 153 152 170 172 174 157 149 148 135 107 107 115 127 128 108 100 133 118 100 103 84 74
345 188 262 273 301 269 346 304 230 230 226 330 170 219 321 301 257 173 192 166 163 157 167 165 167 168 155 156 169 176 168 169 165 186 176 162 187 165 152 151 158 159 156 159 158 151 147 150 147 150 168 171 157 132 121 119 121 123 131 134 148 148 170 171 156 138 143 147 140 132 133 131 144 161 152 155 160 181 174 139 141 140 145 132 119 106 105 137 136 114 89 86 118 125 108 99 90
274 21 220 224 259 313 298 306 317 123 178 281 296 208 228 241 283 93 194 171 160 162 169 168 166 171 166 166 173 178 181 171 188 190 170 179 158 127 150 158 158 160 158 156 155 151 151 153 157 158 166 174 152 147 139 134 131 128 133 139 158 170 181 171 138 146 154 130 132 145 145 137 156 164 151 161 172 181 144 139 139 152 144 124 119 111 105 76 82 106 104 59 83 110 112 112 110
25 309 335 311 279 230 243 297 267 5 43 218 299 272 270 268 268 108 194 179 166 173 170 166 166 164 165 175 178 180 178 178 180 156 160 179 117 125 149 160 157 149 138 148 150 147 142 145 156 161 157 153 140 138 133 125 121 113 103 119 130 163 183 152 141 164 139 124 166 159 139 146 168 178 154 163 159 155 143 148 153 162 135 128 128 122 118 104 91 80 109 91 66 72 104 114 119
154 166 190 185 295 293 276 246 289 360 325 323 288 270 286 282 275 145 193 184 177 181 159 143 150 163 168 177 180 178 178 180 153 157 182 170 144 145 154 156 144 127 127 143 148 144 140 141 149 149 154 151 141 133 133 129 130 144 142 133 148 197 197 176 176 172 142 170 180 164 146 157 174 174 162 162 158 153 154 162 155 150 145 138 139 134 135 136 132 113 107 111 104 82 71 102 115
302 358 246 252 268 282 272 269 244 332 333 262 270 281 268 273 273 215 185 176 177 152 160 158 160 163 172 181 179 172 179 177 151 160 187 166 144 150 143 138 134 127 140 147 143 143 145 147 142 147 151 151 144 141 144 146 149 142 142 165 176 183 182 165 161 169 171 166 179 166 152 168 171 169 166 152 153 146 142 150 151 154 149 151 157 162 133 127 125 125 117 108 119 111 84 100 125
242 277 298 290 261 267 274 290 320 286 200 286 290 309 279 265 271 192 175 153 172 175 172 168 164 171 178 178 172 174 161 111 149 170 186 170 155 145 140 144 145 148 157 148 145 144 147 144 147 150 150 150 151 155 154 160 167 168 158 163 149 150 160 162 167 171 154 167 172 170 165 164 161 158 147 141 138 139 147 160 166 163 159 154 141 124 125 127 128 125 127 94 41 116 120 165 164
245 214 261 300 269 281 285 273 242 265 119 266 290 281 273 269 259 180 172 174 181 181 175 176 168 167 178 178 171 160 153 158 167 179 186 172 154 151 148 154 159 162 155 148 140 141 143 143 145 151 151 152 159 162 159 157 141 127 138 143 143 122 64 91 111 148 141 161 171 166 160 154 157 154 150 148 145 156 157 161 176 174 164 150 132 140 134 137 148 149 146 136 117 65 105 74 27
218 258 227 247 280 347 304 300 351 334 359 287 288 285 278 286 281 193 193 179 183 188 183 175 171 169 177 182 177 168 165 165 171 183 185 163 160 157 157 164 169 160 152 143 150 149 146 145 149 151 155 160 157 153 126 114 124 119 104 121 101 108 156 107 76 81 95 110 124 135 146 156 150 145 151 154 152 158 159 168 166 176 168 154 145 146 145 142 148 149 132 140 136 123 114 55 18
217 195 219 248 264 247 207 280 334 312 295 228 289 317 297 320 343 273 241 222 177 165 135 158 175 177 151 105 133 176 169 168 168 177 181 165 164 168 170 172 166 164 159 156 157 155 151 153 154 152 154 153 137 130 129 129 115 97 92 85 89 73 58 64 82 54 81 119 112 130 175 154 153 146 151 157 157 161 165 165 165 170 157 149 139 143 155 157 163 155 148 143 155 143 136 120 11
283 224 208 223 223 247 257 267 316 359 310 303 138 360 298 292 297 232 168 124 164 165 161 173 173 169 161 168 167 169 176 179 173 182 179 165 163 166 170 167 173 167 159 154 155 148 144 146 142 135 127 127 137 139 143 144 148 144 142 138 133 115 117 124 152 162 158 154 184 174 132 135 147 144 152 153 153 161 169 173 162 155 159 153 151 157 152 135 148 149 167 151 126 102 138 124 96
245 262 195 211 221 224 246 261 128 265 234 278 78 108 276 330 325 265 177 159 159 157 172 173 172 172 171 172 170 174 175 179 177 174 162 158 168 168 170 172 173 171 153 141 142 140 136 134 134 134 138 136 137 141 147 141 136 146 153 150 149 155 155 193 165 160 165 178 137 160 154 104 147 151 150 141 141 158 167 180 166 159 149 145 143 141 160 171 166 158 142 138 154 127 123 135 150
246 226 161 197 207 217 231 231 182 236 272 302 32 126 215 310 294 300 306 149 153 160 170 180 179 175 177 173 174 174 176 175 173 181 169 169 171 174 173 171 166 166 145 139 137 140 138 136 134 134 133 136 137 141 153 157 153 161 152 145 150 149 160 168 165 164 141 138 126 131 119 129 59 61 129 136 151 153 167 174 155 147 139 132 137 152 163 163 142 125 153 154 145 158 160 151 161
233 177 167 185 200 215 228 193 210 220 220 279 335 302 54 262 264 1 110 138 161 168 179 186 181 179 178 176 178 176 174 178 175 172 168 172 173 178 174 164 143 130 149 148 145 139 130 129 128 128 129 130 134 146 157 176 166 159 149 145 143 156 147 138 136 128 131 122 119 108 133 143 95 89 107 157 156 163 171 175 166 157 146 145 133 130 138 155 155 149 147 147 161 159 166 154 145
262 241 144 200 181 207 189 195 177 263 222 274 269 198 207 277 282 56 28 156 168 185 188 188 179 176 179 178 174 174 175 172 171 162 159 165 174 180 166 127 114 130 147 139 128 127 128 130 135 137 138 140 143 142 145 150 159 146 142 147 148 149 121 109 121 129 123 119 123 120 117 111 108 93 86 133 140 159 173 173 179 176 161 158 144 137 140 148 153 159 171 167 152 143 131 153 169
170 85 158 232 68 306 37 91 124 77 271 250 234 203 158 275 272 159 126 202 217 180 179 167 157 168 180 181 176 178 176 168 168 165 161 158 176 172 141 137 126 127 148 147 139 134 135 137 143 146 150 141 144 148 147 152 151 151 148 151 155 151 145 137 133 131 122 116 128 131 128 110 85 120 112 58 97 114 131 162 184 185 159 158 149 146 154 165 174 171 160 137 156 157 151 138 125
208 240 178 291 290 9 45 334 38 135 265 261 237 186 161 183 285 303 244 248 234 194 184 180 173 182 184 180 185 184 174 167 163 163 159 155 162 166 149 137 140 147 151 152 145 140 143 145 146 142 141 144 151 149 144 148 143 143 145 150 154 154 150 152 157 161 162 151 144 136 122 96 89 86 76 64 47 51 89 92 121 148 159 145 158 167 164 164 164 152 149 159 165 160 136 142 150
152 123 69 150 260 34 258 7 256 206 215 246 131 127 76 229 212 239 279 268 271 216 196 181 179 182 182 185 185 179 169 167 165 166 164 167 172 172 169 156 148 156 166 162 156 151 148 148 149 144 150 159 162 153 142 137 131 142 149 150 150 152 157 156 158 157 163 144 139 129 129 124 118 91 94 107 168 168 126 108 115 138 144 149 147 149 159 148 146 152 158 164 159 170 175 160 164
132 161 153 124 180 147 236 272 209 303 286 257 285 51 241 244 297 312 285 262 252 232 212 198 182 182 182 180 173 168 170 173 168 168 176 177 176 176 172 163 161 163 164 158 150 147 149 150 155 152 163 168 161 144 138 139 150 155 158 152 154 154 159 156 157 151 156 143 147 148 150 148 140 143 144 144 182 118 73 102 120 112 122 143 152 147 137 139 139 145 151 159 180 180 155 164 159
195 145 156 176 144 158 221 213 228 226 215 294 294 119 233 148 242 303 288 279 252 223 209 204 201 169 129 134 149 158 165 169 171 175 183 183 175 168 167 168 163 162 158 151 152 153 152 158 163 162 159 165 151 146 138 147 156 162 159 154 151 152 151 146 147 147 145 143 149 138 144 137 132 156 138 160 128 102 92 84 98 107 110 118 115 109 108 110 113 112 114 126 109 120 131 129 141
225 155 77 88 215 139 191 203 174 248 237 51 360 191 187 197 235 279 313 356 31 104 106 118 128 124 135 151 163 169 171 174 175 181 188 182 167 159 158 166 162 155 157 156 158 159 160 165 167 165 158 154 150 143 149 154 158 155 150 153 158 149 137 128 121 127 140 143 150 147 147 149 139 133 122 122 136 109 104 84 75 99 106 97 90 100 104 109 117 115 110 114 115 120 130 133 156
248 112 169 207 176 124 85 20 165 142 38 236 233 327 312 304 339 6 358 34 28 49 74 80 70 72 144 165 170 170 174 175 177 185 186 174 164 163 164 161 154 153 159 166 166 168 166 167 167 154 144 153 156 155 154 156 152 151 162 156 146 141 140 143 141 136 130 123 133 136 131 133 122 122 129 121 111 73 90 98 88 91 96 110 101 91 95 95 90 92 102 98 90 76 107 135 144
91 145 236 100 86 115 131 213 348 60 185 244 48 189 304 37 247 338 355 32 28 33 69 103 109 106 76 337 208 178 180 183 179 186 182 172 166 158 151 151 157 162 160 160 166 170 170 163 157 154 159 158 163 155 154 154 150 150 152 147 141 141 140 125 122 124 125 117 107 110 109 112 128 130 120 115 104 98 85 86 102 84 79 90 104 102 105 104 99 87 95 88 103 105 96 72 71
173 201 178 130 229 206 320 97 165 170 258 264 355 310 250 164 256 345 347 37 36 28 72 111 118 112 161 172 186 197 166 157 174 188 178 168 164 157 148 147 152 154 147 147 150 148 128 131 147 164 164 163 161 157 150 149 147 147 147 146 140 125 117 114 112 120 126 124 126 121 121 126 111 109 115 113 102 95 92 85 106 111 98 101 97 111 110 100 106 102 89 96 84 107 103 91 58
29 119 77 201 105 155 143 202 177 117 208 64 281 43 228 216 215 203 260 345 42 25 81 144 154 130 171 197 143 101 62 88 107 92 75 116 141 143 136 138 139 132 116 124 139 133 133 134 133 126 120 139 147 151 149 145 148 137 128 120 119 125 128 130 137 133 128 133 138 134 132 122 135 111 110 115 116 114 110 106 96 112 105 98 102 96 111 115 98 100 111 99 96 110 100 103 85
352 95 289 246 31 209 111 60 109 176 167 178 156 272 276 265 247 236 264 52 60 43 9 343 297 153 129 72 64 71 26 19 65 75 79 94 92 113 114 97 93 88 87 99 109 128 140 140 139 148 152 145 141 146 139 141 141 132 129 130 132 131 128 129 124 127 127 132 128 126 124 131 110 118 129 119 119 116 108 110 112 116 126 126 117 101 90 107 103 96 79 106 95 100 105 91 105
128 151 86 189 118 143 179 256 10 83 101 185 135 231 267 274 342 316 128 102 83 66 49 32 31 3 25 3 110 106 93 32 77 82 83 75 90 95 97 92 94 88 79 63 86 119 137 145 131 140 120 104 122 91 87 105 110 124 123 126 124 123 124 123 121 125 128 131 131 130 135 115 126 134 120 128 110 94 94 103 110 108 109 115 114 116 125 117 114 100 83 84 106 102 101 97 96